Regional Weather Roundup
Issued by NWS

Home | Current Version | Previous Version | Text Only | Print | Product List | Glossary Off
Versions: 1 2 3 4 5 6 7 8 9 10 11 12 13 14 15 16 17 18 19 20 21 22 23 24 25 26 27 28 29 30 31 32 33 34 35 36 37 38 39 40 41 42 43 44 45 46 47 48 49 50

000
ASUS44 KMEG 242210
RWRTN
TENNESSEE HOURLY STATE WEATHER ROUNDUP
NATIONAL WEATHER SERVICE MEMPHIS TN
500 PM CDT WED MAY 24 2017

TNZ002-004-019-021-049-052-054-088>092-242300-
WEST TENNESSEE

CITY           SKY/WX    TMP DP  RH WIND       PRES   REMARKS
MEMPHIS INTL   HVY RAIN  61  52  72 NW9G21    29.60R
NWS MEMPHIS      N/A     63 N/A N/A MISG        N/A
JACKSON        SUNNY     70  49  47 W9G21     29.55S
DYERSBURG        N/A    N/A N/A N/A MISG        N/A
COVINGTON      PTSUNNY   63  52  67 NW20      29.58R
UNION CITY     MOSUNNY   66  48  52 W13G18    29.53S
BOLIVAR        SUNNY     68  54  60 VRB7G14   29.55S
PARIS          SUNNY     64  54  68 W7        29.52S
HUNTINGDON     PTSUNNY   59  54  82 W10G22    29.54R HAZE
LEXINGTON      MOSUNNY   68  50  52 MISG      29.53F
SELMER         MOSUNNY   59  54  82 W5G15     29.55S HAZE
SAVANNAH       MOSUNNY   66  52  59 VRB6G13   29.53S
$$

TNZ008-025-027-028-033-062-065-066-242300-
NORTH MIDDLE TENNESSEE

CITY           SKY/WX    TMP DP  RH WIND       PRES   REMARKS
NASHVILLE      CLOUDY    63  52  67 NW10      29.53S
PORTLAND       CLOUDY    59  52  77 W8G15     29.51R
CLARKSVILLE    CLOUDY    63  54  72 NW9       29.52S
SMYRNA         PTSUNNY   63  54  72 NW14      29.54F
COOKEVILLE     CLOUDY    59  54  82 W9G18     29.51R
GALLATIN       CLOUDY    59  54  82 VRB7G13   29.55S
CROSSVILLE     CLOUDY    56  52  86 W14       29.52R
$$

TNZ061-075-076-078-094-096-097-242300-
SOUTH MIDDLE TENNESSEE

CITY           SKY/WX    TMP DP  RH WIND       PRES   REMARKS
FAYETTEVILLE   MOSUNNY   66  50  55 VRB7      29.54S
TULLAHOMA      MOSUNNY   63  52  67 W13       29.54F
WINCHESTER     PTSUNNY   63  52  67 NW6         N/A
COLUMBIA       MOSUNNY   66  52  59 VRB5      29.51F
SHELBYVILLE    MOSUNNY   64  52  63 NW14      29.53F
$$

TNZ017-018-042-046-047-242300-
NORTHEAST TENNESSEE

CITY           SKY/WX    TMP DP  RH WIND       PRES   REMARKS
TRI CITIES     CLOUDY    65  59  81 NE3       29.48F
ELIZABETHTON   PTSUNNY   63  59  88 CALM      29.47F
$$

TNZ012-013-036-069-073-074-242300-
CENTRAL EAST TENNESSEE

CITY           SKY/WX    TMP DP  RH WIND       PRES   REMARKS
KNOXVILLE      MOSUNNY   71  54  54 W22G28    29.45R
OAK RIDGE      MOSUNNY   69  54  58 W9G22     29.46S
DOWNTOWN KNOXV SUNNY     70  59  68 W14G20    29.45S
GATLINBURG     PTSUNNY   73  55  53 W17       29.43S
MORRISTOWN     PTSUNNY   73  59  60 SW17      29.44F
JACKSBORO      MOSUNNY   68  52  56 VRB8G25   29.48R
$$

TNZ083-085-099-242300-
SOUTHEAST TENNESSEE

CITY           SKY/WX    TMP DP  RH WIND       PRES   REMARKS
CHATTANOOGA    PTSUNNY   67  53  61 W8        29.51R
$$

SKY/WX REPORTED AS FAIR MEANS FEW OR NO CLOUDS BELOW
12 THOUSAND FEET.





USA.gov is the U.S. government's official web portal to all federal, state and local government web resources and services.